Flag for Canada Weather past 2 weeks in East Hants, Nova Scotia, Canada

Now
30 °F

Light freezing rain. Low clouds.


Feels Like: 19 °F
Forecast: 24 / 39 °F
Wind: 16 mph from East

Location: Halifax International Airport

Current Time: Jan 31, 2015 at 6:40:05 AM

Latest Report: Jan 31, 2015 at 6:00 AM


Visibility: 3 mi

Pressure: 29.40 "Hg

Humidity: 100%

Dew point: 30 °F

Location of East HantsLocation

Historic Weather in East Hants — Graph

°F

East Hants temperature yesterday

Maximum temperature yesterday: 27 °F (at 3:00 PM)
Minimum temperature yesterday: 16 °F (at 12:00 AM)
Average temperature yesterday: 20 °F

Past Weeks' High & Low Weather Summary

 TemperatureHumidityPressure
High50 °F (Jan 24, 11:00 PM)100% (Jan 16, 5:00 AM)30.41 "Hg (Jan 16, 5:00 AM)
Low1 °F (Jan 18, 2:00 AM)41% (Jan 26, 4:00 PM)28.55 "Hg (Jan 25, 3:00 AM)
Average24 °F82%29.81 "Hg
* Reported Jan 16 5:00 AM — Jan 31 5:00 AM, East Hants, Weather by CustomWeather, © 2014

Note: Actual official high and low records may vary slightly from our data, if they occured in-between our weather recording intervals... More about our weather records

Advertising

East Hants weather history for previous 24 hours

 ConditionsComfort  
Time TempWeatherWind HumidityBarometerVisibility
5:00 AM
Jan 31
28 °FLight snow. Ice fog.16 mph93%29.46 "Hg2 mi
4:00 AM27 °FLight snow. Ice fog.16 mph93%29.52 "Hg2 mi
3:00 AM25 °FLow clouds.17 mph100%29.61 "Hg8 mi
2:00 AM25 °FLight snow. Overcast.12 mph100%29.66 "Hg3 mi
1:00 AM25 °FMostly cloudy.12 mph93%29.71 "Hg10 mi
12:00 AM23 °FOvercast.9 mph93%29.75 "Hg10 mi
11:00 PM
Jan 30
23 °FOvercast.10 mph93%29.78 "Hg10 mi
10:00 PM23 °FPassing clouds.7 mph93%29.80 "Hg10 mi
9:00 PM21 °FPassing clouds.10 mph93%29.80 "Hg10 mi
8:00 PM23 °FPassing clouds.6 mph93%29.85 "Hg15 mi
7:00 PM23 °FPassing clouds.7 mph93%29.85 "Hg15 mi
6:00 PM23 °FPassing clouds.6 mph93%29.87 "Hg15 mi
5:00 PM25 °FPartly sunny.8 mph86%29.86 "Hg15 mi
4:00 PM27 °FPartly sunny.5 mph86%29.87 "Hg15 mi
3:00 PM27 °FPartly sunny.3 mph86%29.89 "Hg15 mi
2:00 PM25 °FPartly sunny.2 mph86%29.89 "Hg15 mi
1:00 PM21 °FScattered clouds.2 mph93%29.91 "Hg10 mi
12:00 PM19 °FIce fog.3 mph93%29.93 "Hg2 mi
11:00 AM18 °FIce fog.2 mph93%29.97 "Hg1 mi
10:00 AM16 °FIce fog.3 mph93%29.98 "Hg1 mi
9:00 AM16 °FIce fog.6 mph93%30.00 "Hg0 mi
8:00 AM16 °FIce fog.9 mph93%30.02 "Hg0 mi
7:00 AM16 °FIce fog.6 mph93%30.02 "Hg1 mi
6:00 AM16 °FIce fog.5 mph93%30.03 "Hg1 mi
Weather by CustomWeather, © 2014

See weather overviewHow to use our weather pages